Location: College Park
(38.9810°N, 76.9370°W)
Time: 18:47:50
(UTC-04:00)

N. Korean satellite - Pass Details

Date: 09 January 2018
Orbit: 458 x 514 km, 97.2° (Epoch: 26 April)

Event Time Altitude Azimuth Distance (km) Brightness Sun altitude
Rises 06:24:55 0° 20° (NNE) 2,508 10.2 -11.8°
Reaches altitude 10° 06:27:06 10° 29° (NNE) 1,620 9.3 -11.4°
Maximum altitude 06:30:20 36° 98° (E) 746 8.2 -10.8°
Drops below altitude 10° 06:33:31 10° 167° (SSE) 1,596 9.7 -10.2°
Sets 06:35:38 0° 176° (S) 2,463 10.5 -9.9°
